#timestamp,LO_Frequency,Hit,StdDev 
1698166815.8,286046996.7,N
1698166835.6,286046996.6,N
1698166855.4,286046996.5,N
1698166875.3,286046998.4,N
1698166895.1,286046999.2,N
1698166915.8,286047000.7,N
1698166935.8,286047000.6,N
1698166955.6,286047000.7,N
1698166975.5,286046998.4,N
1698166995.3,286046997.0,N
1698167015.2,286046997.0,N
1698167035.9,286046997.0,N
1698167055.7,286046996.7,N
1698167075.6,286046996.9,N
1698167095.4,286046994.9,Y
1698167115.2,286046998.7,P
1698167135.1,286046999.3,P
1698167136.0,286046999.3,N
1698167155.8,286046997.2,Y
1698167175.7,286046998.1,P
1698167195.5,286047000.5,N
1698167215.3,286046998.2,N
1698167235.2,286046998.2,N
1698167255.0,286047001.0,N
1698167255.9,286047001.0,N
1698167275.7,286047001.2,N
1698167295.6,286046998.4,N
1698167315.4,286047000.3,N
1698167335.3,286047002.2,N
1698167355.1,286047001.4,N
1698167356.0,286047001.4,N
1698167375.8,286047001.4,N
1698167395.7,286047002.4,N
1698167415.5,286047001.5,N
1698167435.3,286047001.9,N
1698167455.2,286047002.6,N
1698167475.0,286046998.2,N
1698167475.9,286046998.2,N
1698167495.8,286047001.2,N
1698167515.6,286047000.5,N
1698167535.4,286046999.7,N
1698167555.3,286047002.8,N
1698167575.1,286047000.5,N
1698167595.8,286047001.2,N
1698167615.7,286046998.3,N
1698167635.5,286046998.9,N
1698167655.4,286046998.8,N
1698167675.2,286046998.8,N
1698167695.0,286046998.6,N
1698167695.9,286046998.6,N
1698167715.8,286046998.8,N
1698167735.6,286046998.9,N
1698167755.4,286046998.6,N
1698167775.3,286046997.0,N
1698167795.1,286046999.2,N
1698167815.9,286046997.4,N
1698167835.7,286046997.2,N
1698167855.5,286046999.5,N
1698167875.4,286046999.0,N
1698167895.2,286046999.5,N
1698167915.0,286046996.7,N
1698167916.0,286046996.7,N
1698167935.8,286046998.5,N
1698167955.6,286046998.7,N
1698167975.5,286046999.1,N
1698167995.3,286046999.5,N
1698168015.1,286046999.6,N
1698168035.9,286046998.3,N
1698168055.7,286046998.9,N
1698168075.6,286046998.9,N
1698168095.4,286046998.1,N
1698168115.2,286046998.7,N
1698168135.1,286047001.2,N
1698168136.0,286047001.2,N
1698168155.8,286047000.0,N
1698168175.7,286047000.2,N
1698168195.5,286047000.5,N
1698168215.3,286047000.3,N
1698168235.2,286047000.6,N
1698168255.9,286047001.0,N
1698168275.7,286047000.5,N
1698168295.6,286046998.3,N
1698168315.4,286047000.7,N
1698168335.3,286046999.9,N
1698168355.1,286047002.5,N
1698168356.0,286047002.5,N
1698168375.8,286047000.5,N
1698168395.7,286047000.0,N
1698168415.5,286047000.1,N
1698168435.3,286047000.9,N
1698168455.2,286047001.0,N
1698168475.0,286047002.2,N
1698168475.9,286047002.2,N
1698168495.8,286047000.4,N
1698168515.6,286047000.6,N
1698168535.4,286047000.9,N
1698168555.3,286047001.0,N
1698168575.1,286047000.3,N
1698168595.8,286046998.2,N
1698168615.7,286047000.5,N
1698168635.5,286047000.2,N
1698168655.4,286047000.8,N
1698168675.2,286046998.4,N
1698168695.0,286046999.3,N
1698168695.9,286046999.3,N
1698168715.8,286046998.3,N
1698168735.6,286046998.7,N
1698168755.4,286047001.2,N
1698168775.3,286046998.6,N
1698168795.1,286046998.5,N
1698168815.9,286047000.6,N
1698168835.7,286047000.2,N
1698168855.5,286047002.5,N
1698168875.4,286047002.7,N
1698168895.2,286047002.3,N
1698168915.1,286047001.9,N
1698168916.0,286047001.9,N
1698168935.8,286047001.7,N
1698168955.7,286047001.3,N
1698168975.5,286047004.0,N
1698168995.3,286047003.8,N
1698169015.2,286047003.7,N
1698169035.0,286047005.5,Y
1698169035.9,286047005.5,P
1698169055.8,286047003.6,N
1698169075.6,286047003.0,N
1698169095.4,286047006.0,Y
1698169115.3,286047000.3,P
1698169135.1,286047002.1,N
1698169155.8,286047002.1,N
1698169175.7,286047002.8,N
1698169195.5,286047002.6,N
1698169215.4,286047002.4,N
1698169235.2,286047002.5,N
1698169255.0,286047001.7,N
1698169256.0,286047001.7,N
1698169275.8,286047004.2,Y
1698169295.6,286047002.1,P
1698169315.5,286047002.2,P
1698169335.3,286047002.0,P
1698169355.1,286047000.8,Y
1698169375.9,286046996.5,P
1698169395.7,286046997.3,N
1698169415.6,286046996.7,N
1698169435.4,286046998.3,N
1698169455.2,286046999.4,N
1698169475.1,286046998.9,N
1698169476.0,286046998.9,N
1698169495.8,286046998.2,N
1698169515.6,286047000.9,N
1698169535.5,286047000.2,N
1698169555.3,286047000.0,N
1698169575.2,286046998.5,N
1698169595.9,286047002.8,N
1698169615.7,286047002.0,N
1698169635.6,286047002.6,N
1698169655.4,286046999.8,N
1698169675.2,286047000.3,N
1698169695.1,286047000.9,N
1698169696.0,286047000.9,N
1698169715.8,286047001.0,N
1698169735.7,286047000.5,N
1698169755.5,286047000.4,N
1698169775.3,286047000.3,N
1698169795.2,286047002.3,N
1698169815.0,286047001.5,N
1698169815.9,286047001.5,N
1698169835.7,286047002.0,N
1698169855.6,286047001.7,N
1698169875.4,286047003.8,N
1698169895.3,286047001.7,N
1698169915.1,286047004.3,N
1698169916.0,286047004.3,N
1698169935.8,286047003.9,N
1698169955.7,286047001.7,N
1698169975.5,286047003.8,N
1698169995.3,286047003.2,N
1698170015.2,286047003.3,N
1698170035.0,286047003.4,N
1698170035.9,286047003.4,N
1698170055.8,286047003.2,N
1698170075.6,286047003.8,N
1698170095.4,286047003.7,N
1698170115.3,286047004.2,Y
1698170135.1,286047000.0,P
1698170155.9,286047001.0,N
1698170175.7,286046998.4,N
1698170195.5,286047001.1,N
1698170215.4,286046999.9,N
1698170235.2,286047002.6,N
1698170255.0,286047002.1,N
1698170255.9,286047002.1,N
1698170275.8,286047002.3,N
1698170295.6,286047000.0,N
1698170315.5,286046998.1,N
1698170335.3,286046998.1,N
1698170355.1,286047000.8,N
1698170375.9,286047000.5,N
1698170395.7,286047002.4,N
